CZ-3B DEB, 40852

Orbit data source: Space-Track

CZ-3B DEB, 40852 is space debris in HEO originally from a launch on Mon, 19 Dec 2011 UTC launched from the Xichang Space Center, China (XSC). Debris objects in space refer to the collection of defunct objects orbiting the Earth. Examples of debris include non-operational satellites, rocket bodies, and fragments generated from explosions, collisions, or faulty payload assembly.

Loading next visibility...
Identifier
40852, 2011-077AH
Orbit
HEO
Country
Flag of CNCN / PRC
Related business
Manufacturer
CALT
Mission
Spacecraft
Bus & Motor
Unknown
Mass
Unknown
Launch date (UTC)
2011-12-19 (14 years ago)
Launch vehicle
Unknown
Launch site
Xichang Space Center, China (XSC)
Object type
Payload
Rocket body
Debris
Shape & HBR
Unknown shape, 0.2 m
Radar Cross Section
Medium (>0.1 m² and <1 m²)

Expand to show TLE details & history
Last TLE update: 17 hours ago

TLE from 17 hours ago
0 CZ-3B DEB
1 40852U 11077AH  25310.73917354 -.00000187  00000-0  00000-0 0  9992
2 40852  26.7500  94.5457 7321899 212.0541  67.7830  1.90683034 82116
Epoch: 2025-11-06T17:44Z
TLE epoch observation values (Epoch: 2025-11-06T17:44:24.593Z)
Latitude
-0.00002°
Longitude
142.13223°
Altitude
27,215.437 km
Speed
3.036 km/s
True Right ascension
06h 17m 42s
True Declination
0° 00' 00"
Sunlit
Object was in daylight at epoch
Visualization orbit readout
Latitude
Unknown
Longitude
Unknown
Altitude
Unknown
Speed
Unknown
Apparent Right ascension
Unknown
Apparent Declination
Unknown
Sunlit
N/A
Visualization observer readout
Local Sidereal Time
06:36:12
Azimuth
Unknown
Elevation
Unknown
Doppler factor
Unknown
Orbital elements
Apogee altitude
41,211.466 km
Perigee altitude
979.588 km
Semi-major axis
27,473.664 km
Eccentricity
0.73219
Inclination
26.75°
RAAN
94.5457°
Arg. of periapsis
212.0541°
True anomaly
147.96826°
Mean anomaly
67.783°
Eccentric anomaly
107.73964°
Mean motion
0.47662 °/min
Orbital period
755.33 mins
BSTAR
0
Loading maneuver chart data...
Computing Atmospheric mass density...
Loading historical data...
Loading historical data...
Loading historical data...
Loading historical data...
Loading historical data...
Loading historical data...
Loading historical data...

Documentation

Showing up to 5 results
|